Location: Vancouver
(49.2500°N, 123.1330°W)
Time: 06:36:56
(UTC-07:00)

A-11 Canister half - Visible Passes

Search period start: 31 October 2014 00:00
Search period end: 09 November 2014 23:00
Orbit: 1525 x 1685 km, 47.3° (Epoch: 30 October)

Date Brightness Start Highest point End Pass type
(mag) Time Alt. Az. Time Alt. Az. Time Alt. Az.
03 Nov 11.1 06:18:04 10° S 06:25:50 28° SE 06:33:24 10° E visible
04 Nov 11.0 05:56:45 10° S 06:04:22 27° SE 06:11:49 10° E visible
05 Nov 11.0 05:35:27 10° S 05:42:55 25° SE 05:50:12 10° E visible
06 Nov 11.0 05:14:09 10° S 05:21:28 24° SE 05:28:35 10° E visible
07 Nov 11.0 04:52:53 10° S 05:00:00 23° SE 05:06:58 10° E visible
08 Nov 11.0 04:31:38 10° S 04:38:33 22° SE 04:45:19 10° E visible
08 Nov 9.9 06:32:37 10° SW 06:42:03 54° SSE 06:51:12 10° ENE visible
09 Nov 10.9 04:10:24 10° S 04:17:06 21° SE 04:23:40 10° E visible
09 Nov 9.8 06:11:08 10° SW 06:20:33 53° SSE 06:29:41 10° ENE visible
